This is the latest recevied weather packets stored in our database for station/object KB1WCR. If no packets are shown the sender has not sent any weather packets the latest 10 day(s).
| Time | Temp. | Humidity | Pressure | Rain* | Wind** | Luminosity | Snow |
|---|---|---|---|---|---|---|---|
| 1778063009 | 11.11° C | 93% | 1009 hPa | 0 mm | - | 43 W/m² | - |
| 1778062706 | 11.11° C | 93% | 1008.9 hPa | 0 mm | - | 39 W/m² | - |
| 1778062402 | 11.11° C | 92% | 1009.2 hPa | 0 mm | - | 39 W/m² | - |
| 1778062100 | 11.11° C | 93% | 1009.3 hPa | 0 mm | - | 33 W/m² | - |
| 1778061798 | 10.56° C | 94% | 1009.1 hPa | 0 mm | - | 31 W/m² | - |
| 1778061496 | 10.56° C | 94% | 1008.9 hPa | 0 mm | - | 28 W/m² | - |
| 1778061193 | 10.56° C | 94% | 1008.8 hPa | 0 mm | - | 23 W/m² | - |
| 1778060890 | 10.56° C | 94% | 1009.1 hPa | 0 mm | - | 15 W/m² | - |
| 1778060589 | 10.56° C | 94% | 1009.2 hPa | 0 mm | - | 11 W/m² | - |
| 1778060286 | 10.56° C | 93% | 1008.9 hPa | 0 mm | - | 8 W/m² | - |
| 1778059983 | 10.56° C | 93% | 1008.8 hPa | 0 mm | - | 4 W/m² | - |
| 1778059681 | 10.56° C | 93% | 1009 hPa | 0 mm | - | 2 W/m² | - |
| 1778059378 | 11.11° C | 92% | 1008.9 hPa | 0 mm | - | 1 W/m² | - |
| 1778059075 | 11.11° C | 92% | 1009.1 hPa | 0 mm | - | 1 W/m² | - |
| 1778058773 | 11.11° C | 92% | 1009 hPa | 0 mm | - | 0 W/m² | - |
| 1778058471 | 11.11° C | 92% | 1009 hPa | 0 mm | - | 0 W/m² | - |
| 1778058167 | 11.11° C | 92% | 1008.8 hPa | 0 mm | - | 0 W/m² | - |
| 1778057864 | 11.11° C | 91% | 1008.7 hPa | 0 mm | - | 0 W/m² | - |
| 1778057560 | 11.11° C | 91% | 1008.8 hPa | 0 mm | - | 0 W/m² | - |
| 1778057257 | 11.67° C | 91% | 1008.8 hPa | 0 mm | - | 0 W/m² | - |
| 1778056953 | 11.67° C | 90% | 1008.7 hPa | 0 mm | - | 0 W/m² | - |
| 1778056651 | 11.67° C | 89% | 1008.5 hPa | 0 mm | - | 0 W/m² | - |
| 1778056348 | 12.22° C | 89% | 1008.6 hPa | 0 mm | - | 0 W/m² | - |
| 1778056045 | 12.22° C | 89% | 1008.8 hPa | 0 mm | - | 0 W/m² | - |
| 1778055741 | 12.22° C | 89% | 1008.5 hPa | 0 mm | - | 0 W/m² | - |
* Rain latest hour (hover to see other rain measurements)
** Current wind speed in m/s (hover to see current wind gust speed)